Time,TemperatureF,DewpointF,PressureIn,WindDirection,WindDirectionDegrees,WindSpeedMPH,WindSpeedGustMPH,Humidity,HourlyPrecipIn,Conditions,Clouds,dailyrainin,SoftwareType,DateUTC
2013-06-23 00:01:00,64.7,63.5,30.25,SSW,202,4.2,6.5,97,0.00,,,0.00,Rainwise IP-100,2013-06-23 04:01:00,
2013-06-23 00:06:00,64.7,63.5,30.25,SSW,202,1.9,5.4,97,0.00,,,0.00,Rainwise IP-100,2013-06-23 04:06:00,
2013-06-23 00:11:00,64.7,63.5,30.24,WSW,247,0.0,4.2,97,0.00,,,0.00,Rainwise IP-100,2013-06-23 04:11:00,
2013-06-23 00:16:00,64.8,64.0,30.24,WSW,247,1.2,7.5,97,0.00,,,0.00,Rainwise IP-100,2013-06-23 04:16:00,
2013-06-23 00:21:00,64.9,64.0,30.24,WSW,247,2.1,5.1,97,0.00,,,0.00,Rainwise IP-100,2013-06-23 04:21:00,
2013-06-23 00:26:00,64.9,64.0,30.24,WSW,247,1.9,9.1,97,0.00,,,0.00,Rainwise IP-100,2013-06-23 04:26:00,
2013-06-23 00:31:00,64.9,64.0,30.25,WNW,292,3.0,6.1,97,0.00,,,0.00,Rainwise IP-100,2013-06-23 04:31:00,
2013-06-23 00:36:00,64.9,64.0,30.24,WNW,292,2.8,7.0,97,0.00,,,0.00,Rainwise IP-100,2013-06-23 04:36:00,
2013-06-23 00:41:00,64.9,64.0,30.24,WNW,292,1.2,10.5,97,0.00,,,0.00,Rainwise IP-100,2013-06-23 04:41:00,
2013-06-23 00:46:00,65.0,64.0,30.24,WSW,247,3.0,7.0,97,0.00,,,0.00,Rainwise IP-100,2013-06-23 04:46:00,
2013-06-23 00:51:00,65.1,64.0,30.25,WSW,247,3.0,6.3,97,0.00,,,0.00,Rainwise IP-100,2013-06-23 04:51:00,
2013-06-23 00:56:00,65.2,64.0,30.25,WNW,292,0.0,4.9,97,0.00,,,0.00,Rainwise IP-100,2013-06-23 04:56:00,
2013-06-23 01:01:00,65.2,64.0,30.24,WSW,247,4.2,6.1,97,0.00,,,0.00,Rainwise IP-100,2013-06-23 05:01:00,
2013-06-23 01:06:00,65.3,64.0,30.24,WSW,247,3.5,8.2,96,0.00,,,0.00,Rainwise IP-100,2013-06-23 05:06:00,
2013-06-23 01:11:00,65.3,64.0,30.24,WNW,292,2.8,6.5,96,0.00,,,0.00,Rainwise IP-100,2013-06-23 05:11:00,
2013-06-23 01:16:00,65.3,64.0,30.24,SW,225,3.5,6.8,96,0.00,,,0.00,Rainwise IP-100,2013-06-23 05:16:00,
2013-06-23 01:21:00,65.3,64.0,30.24,WNW,292,1.4,6.1,96,0.00,,,0.00,Rainwise IP-100,2013-06-23 05:21:00,
2013-06-23 01:26:00,65.3,64.0,30.24,SW,225,1.6,6.3,96,0.00,,,0.00,Rainwise IP-100,2013-06-23 05:26:00,
2013-06-23 01:30:00,65.2,64.0,30.24,WSW,247,2.8,4.7,96,0.00,,,0.00,Rainwise IP-100,2013-06-23 05:30:00,
2013-06-23 01:31:00,65.2,64.0,30.24,West,270,1.6,4.7,96,0.00,,,0.00,Rainwise IP-100,2013-06-23 05:31:00,
2013-06-23 01:36:00,65.1,64.0,30.24,SSW,202,1.4,4.0,96,0.00,,,0.00,Rainwise IP-100,2013-06-23 05:36:00,
2013-06-23 01:41:00,65.0,64.0,30.24,WNW,292,0.0,6.3,96,0.00,,,0.00,Rainwise IP-100,2013-06-23 05:41:00,
2013-06-23 01:46:00,65.1,64.0,30.24,WSW,247,2.1,5.1,97,0.00,,,0.00,Rainwise IP-100,2013-06-23 05:46:00,
2013-06-23 01:51:00,65.1,64.0,30.24,WSW,247,2.6,5.6,97,0.00,,,0.00,Rainwise IP-100,2013-06-23 05:51:00,
2013-06-23 01:56:00,65.1,64.0,30.24,WNW,292,3.0,4.9,97,0.00,,,0.00,Rainwise IP-100,2013-06-23 05:56:00,
2013-06-23 02:01:00,65.2,64.0,30.24,WSW,247,3.5,5.4,97,0.00,,,0.00,Rainwise IP-100,2013-06-23 06:01:00,
2013-06-23 02:06:00,65.3,64.5,30.23,WNW,292,8.4,9.1,97,0.00,,,0.00,Rainwise IP-100,2013-06-23 06:06:00,
2013-06-23 02:11:00,65.4,64.5,30.24,WSW,247,4.2,8.9,97,0.00,,,0.00,Rainwise IP-100,2013-06-23 06:11:00,
2013-06-23 02:16:00,65.6,64.5,30.24,WNW,292,4.7,8.9,97,0.00,,,0.00,Rainwise IP-100,2013-06-23 06:16:00,
2013-06-23 02:21:00,65.6,64.5,30.24,WNW,292,6.5,7.9,97,0.00,,,0.00,Rainwise IP-100,2013-06-23 06:21:00,
2013-06-23 02:26:00,65.6,64.5,30.24,WNW,292,4.0,10.3,97,0.00,,,0.00,Rainwise IP-100,2013-06-23 06:26:00,
2013-06-23 02:31:00,65.6,64.5,30.23,WSW,247,2.6,8.2,97,0.00,,,0.00,Rainwise IP-100,2013-06-23 06:31:00,
2013-06-23 02:36:00,65.5,64.5,30.23,WNW,292,4.9,7.9,97,0.00,,,0.00,Rainwise IP-100,2013-06-23 06:36:00,
2013-06-23 02:41:00,65.5,65.0,30.22,WNW,292,4.2,11.0,98,0.00,,,0.00,Rainwise IP-100,2013-06-23 06:41:00,
2013-06-23 02:46:00,65.4,65.0,30.22,WNW,292,2.1,9.3,98,0.00,,,0.00,Rainwise IP-100,2013-06-23 06:46:00,
2013-06-23 02:51:00,65.6,65.0,30.23,WNW,292,5.6,8.6,98,0.00,,,0.00,Rainwise IP-100,2013-06-23 06:51:00,
2013-06-23 02:56:00,65.7,65.0,30.22,WNW,292,7.0,8.6,98,0.00,,,0.00,Rainwise IP-100,2013-06-23 06:56:00,
2013-06-23 03:01:00,65.7,65.0,30.22,WNW,292,6.3,10.7,98,0.00,,,0.00,Rainwise IP-100,2013-06-23 07:01:00,
2013-06-23 03:06:00,65.7,65.0,30.23,WNW,292,4.7,7.5,98,0.00,,,0.00,Rainwise IP-100,2013-06-23 07:06:00,
2013-06-23 03:11:00,65.7,65.0,30.22,WSW,247,5.4,9.3,98,0.00,,,0.00,Rainwise IP-100,2013-06-23 07:11:00,
2013-06-23 03:16:00,65.7,65.0,30.22,WNW,292,3.5,11.7,98,0.00,,,0.00,Rainwise IP-100,2013-06-23 07:16:00,
2013-06-23 03:21:00,65.6,65.0,30.22,West,270,4.9,10.7,98,0.00,,,0.00,Rainwise IP-100,2013-06-23 07:21:00,
2013-06-23 03:26:00,65.6,65.0,30.22,WNW,292,6.1,10.0,98,0.00,,,0.00,Rainwise IP-100,2013-06-23 07:26:00,
2013-06-23 03:31:00,65.7,65.0,30.23,NNW,337,2.1,8.2,98,0.00,,,0.00,Rainwise IP-100,2013-06-23 07:31:00,
2013-06-23 03:36:00,65.6,65.0,30.22,WNW,292,3.3,8.4,98,0.00,,,0.00,Rainwise IP-100,2013-06-23 07:36:00,
2013-06-23 03:41:00,65.5,65.0,30.22,WSW,247,3.7,8.9,98,0.00,,,0.00,Rainwise IP-100,2013-06-23 07:41:00,
2013-06-23 03:46:00,65.4,65.0,30.22,West,270,7.5,8.2,98,0.00,,,0.00,Rainwise IP-100,2013-06-23 07:46:00,
2013-06-23 03:51:00,65.4,65.0,30.22,West,270,4.2,10.0,98,0.00,,,0.00,Rainwise IP-100,2013-06-23 07:51:00,
2013-06-23 03:56:00,65.3,65.0,30.21,WNW,292,4.4,8.6,98,0.00,,,0.00,Rainwise IP-100,2013-06-23 07:56:00,
2013-06-23 04:01:00,65.3,65.0,30.21,WNW,292,1.2,7.7,98,0.00,,,0.00,Rainwise IP-100,2013-06-23 08:01:00,
2013-06-23 04:06:00,65.3,65.0,30.22,WSW,247,3.5,11.4,98,0.00,,,0.00,Rainwise IP-100,2013-06-23 08:06:00,
2013-06-23 04:11:00,65.3,65.0,30.22,WNW,292,4.0,8.9,98,0.00,,,0.00,Rainwise IP-100,2013-06-23 08:11:00,
2013-06-23 04:16:00,65.3,65.0,30.22,WNW,292,2.8,7.9,98,0.00,,,0.00,Rainwise IP-100,2013-06-23 08:16:00,
2013-06-23 04:21:00,65.1,64.5,30.22,WNW,292,4.9,11.0,98,0.00,,,0.00,Rainwise IP-100,2013-06-23 08:21:00,
2013-06-23 04:26:00,65.0,64.5,30.22,WNW,292,4.2,8.9,98,0.00,,,0.00,Rainwise IP-100,2013-06-23 08:26:00,
2013-06-23 04:31:00,65.0,64.5,30.22,WNW,292,7.9,7.9,98,0.00,,,0.00,Rainwise IP-100,2013-06-23 08:31:00,
2013-06-23 04:36:00,64.9,64.5,30.22,West,270,4.7,8.6,98,0.00,,,0.00,Rainwise IP-100,2013-06-23 08:36:00,
2013-06-23 04:41:00,64.7,64.0,30.22,WNW,292,1.6,9.8,98,0.00,,,0.00,Rainwise IP-100,2013-06-23 08:41:00,
2013-06-23 04:46:00,64.6,64.0,30.22,West,270,4.7,8.9,98,0.00,,,0.00,Rainwise IP-100,2013-06-23 08:46:00,
2013-06-23 04:51:00,64.5,64.0,30.22,WNW,292,5.4,9.3,98,0.00,,,0.00,Rainwise IP-100,2013-06-23 08:51:00,
2013-06-23 04:56:00,64.5,64.0,30.22,WNW,292,2.6,10.3,98,0.00,,,0.00,Rainwise IP-100,2013-06-23 08:56:00,
2013-06-23 05:01:00,64.4,64.0,30.22,WNW,292,4.2,7.7,98,0.00,,,0.00,Rainwise IP-100,2013-06-23 09:01:00,
2013-06-23 05:06:00,64.4,64.0,30.22,WNW,292,3.5,7.5,98,0.00,,,0.00,Rainwise IP-100,2013-06-23 09:06:00,
2013-06-23 05:11:00,64.4,64.0,30.23,SSE,157,1.2,5.8,98,0.00,,,0.00,Rainwise IP-100,2013-06-23 09:11:00,
2013-06-23 05:16:00,64.3,64.0,30.22,West,270,1.2,7.2,98,0.00,,,0.00,Rainwise IP-100,2013-06-23 09:16:00,
2013-06-23 05:21:00,64.3,64.0,30.22,WNW,292,3.5,8.9,98,0.00,,,0.00,Rainwise IP-100,2013-06-23 09:21:00,
2013-06-23 05:26:00,64.3,64.0,30.22,SW,225,4.7,5.8,98,0.00,,,0.00,Rainwise IP-100,2013-06-23 09:26:00,
2013-06-23 05:31:00,64.2,63.5,30.22,WSW,247,2.6,6.5,98,0.00,,,0.00,Rainwise IP-100,2013-06-23 09:31:00,
2013-06-23 05:36:00,64.2,63.5,30.22,WNW,292,1.2,4.2,98,0.00,,,0.00,Rainwise IP-100,2013-06-23 09:36:00,
2013-06-23 05:41:00,64.2,63.5,30.22,SW,225,2.6,5.4,98,0.00,,,0.00,Rainwise IP-100,2013-06-23 09:41:00,
2013-06-23 05:46:00,64.0,63.5,30.22,WSW,247,2.1,5.4,98,0.00,,,0.00,Rainwise IP-100,2013-06-23 09:46:00,
2013-06-23 05:51:00,64.0,63.5,30.22,West,270,1.2,4.4,98,0.00,,,0.00,Rainwise IP-100,2013-06-23 09:51:00,
2013-06-23 05:56:00,64.0,63.5,30.22,NW,315,2.3,3.7,98,0.00,,,0.00,Rainwise IP-100,2013-06-23 09:56:00,
2013-06-23 06:02:00,64.0,63.5,30.22,SSW,202,0.0,2.3,98,0.00,,,0.00,Rainwise IP-100,2013-06-23 10:02:00,
2013-06-23 06:07:00,64.0,63.5,30.22,SSW,202,0.0,1.6,98,0.00,,,0.00,Rainwise IP-100,2013-06-23 10:07:00,
2013-06-23 06:12:00,64.0,63.5,30.22,SSW,202,0.0,1.4,98,0.00,,,0.00,Rainwise IP-100,2013-06-23 10:12:00,
2013-06-23 06:17:00,64.1,63.5,30.23,SSW,202,0.0,2.3,98,0.00,,,0.00,Rainwise IP-100,2013-06-23 10:17:00,
2013-06-23 06:22:00,64.3,64.0,30.22,SSW,202,0.0,2.8,98,0.00,,,0.00,Rainwise IP-100,2013-06-23 10:22:00,
2013-06-23 06:27:00,64.4,64.0,30.22,WSW,247,1.6,4.4,98,0.00,,,0.00,Rainwise IP-100,2013-06-23 10:27:00,
2013-06-23 06:32:00,64.5,64.0,30.22,SW,225,3.5,4.9,98,0.00,,,0.00,Rainwise IP-100,2013-06-23 10:32:00,
2013-06-23 06:37:00,64.7,64.0,30.22,WSW,247,0.0,5.8,98,0.00,,,0.00,Rainwise IP-100,2013-06-23 10:37:00,
2013-06-23 06:42:00,64.8,64.5,30.22,WSW,247,2.3,4.4,98,0.00,,,0.00,Rainwise IP-100,2013-06-23 10:42:00,
2013-06-23 06:47:00,64.9,64.5,30.22,WSW,247,0.0,5.1,98,0.00,,,0.00,Rainwise IP-100,2013-06-23 10:47:00,
2013-06-23 06:52:00,65.0,64.0,30.22,WSW,247,2.3,5.6,97,0.00,,,0.00,Rainwise IP-100,2013-06-23 10:52:00,
2013-06-23 06:57:00,65.2,64.0,30.22,WSW,247,3.7,5.8,97,0.00,,,0.00,Rainwise IP-100,2013-06-23 10:57:00,
2013-06-23 07:02:00,65.3,64.0,30.22,WNW,292,1.9,7.9,96,0.00,,,0.00,Rainwise IP-100,2013-06-23 11:02:00,
2013-06-23 07:07:00,65.6,64.0,30.22,WSW,247,0.0,5.8,95,0.00,,,0.00,Rainwise IP-100,2013-06-23 11:07:00,
2013-06-23 07:12:00,65.9,64.5,30.22,WSW,247,0.0,4.7,95,0.00,,,0.00,Rainwise IP-100,2013-06-23 11:12:00,
2013-06-23 07:17:00,66.1,64.0,30.23,WSW,247,2.6,6.3,94,0.00,,,0.00,Rainwise IP-100,2013-06-23 11:17:00,
2013-06-23 07:22:00,66.3,64.0,30.23,WNW,292,2.3,7.5,93,0.00,,,0.00,Rainwise IP-100,2013-06-23 11:22:00,
2013-06-23 07:27:00,66.4,64.0,30.23,WNW,292,4.2,6.8,92,0.00,,,0.00,Rainwise IP-100,2013-06-23 11:27:00,
2013-06-23 07:32:00,66.7,64.0,30.23,WSW,247,3.0,10.0,91,0.00,,,0.00,Rainwise IP-100,2013-06-23 11:32:00,
2013-06-23 07:37:00,67.0,64.0,30.23,WSW,247,1.2,9.3,90,0.00,,,0.00,Rainwise IP-100,2013-06-23 11:37:00,
2013-06-23 07:42:00,67.2,64.0,30.24,WNW,292,3.5,7.0,89,0.00,,,0.00,Rainwise IP-100,2013-06-23 11:42:00,
2013-06-23 07:47:00,67.5,64.5,30.23,WNW,292,4.9,8.4,89,0.00,,,0.00,Rainwise IP-100,2013-06-23 11:47:00,
2013-06-23 07:52:00,67.8,64.5,30.23,WNW,292,7.0,7.7,88,0.00,,,0.00,Rainwise IP-100,2013-06-23 11:52:00,
2013-06-23 07:57:00,68.1,64.0,30.23,WNW,292,4.4,9.6,87,0.00,,,0.00,Rainwise IP-100,2013-06-23 11:57:00,
2013-06-23 08:02:00,68.3,64.5,30.23,WSW,247,2.6,8.4,87,0.00,,,0.00,Rainwise IP-100,2013-06-23 12:02:00,
2013-06-23 08:07:00,68.4,64.0,30.23,West,270,2.8,12.1,86,0.00,,,0.00,Rainwise IP-100,2013-06-23 12:07:00,
2013-06-23 08:12:00,68.4,64.0,30.23,WSW,247,3.5,8.9,86,0.00,,,0.00,Rainwise IP-100,2013-06-23 12:12:00,
2013-06-23 08:17:00,68.6,64.0,30.24,WSW,247,5.1,11.4,86,0.00,,,0.00,Rainwise IP-100,2013-06-23 12:17:00,
2013-06-23 08:22:00,68.6,64.0,30.24,WNW,292,7.5,9.8,86,0.00,,,0.00,Rainwise IP-100,2013-06-23 12:22:00,
2013-06-23 08:27:00,68.8,64.5,30.24,WNW,292,3.5,11.7,86,0.00,,,0.00,Rainwise IP-100,2013-06-23 12:27:00,
2013-06-23 08:32:00,69.0,64.5,30.24,WNW,292,7.0,11.2,86,0.00,,,0.00,Rainwise IP-100,2013-06-23 12:32:00,
2013-06-23 08:37:00,68.9,64.0,30.23,WNW,292,1.9,11.2,85,0.00,,,0.00,Rainwise IP-100,2013-06-23 12:37:00,
2013-06-23 08:42:00,68.8,64.0,30.24,NNW,337,9.1,11.2,85,0.00,,,0.00,Rainwise IP-100,2013-06-23 12:42:00,
2013-06-23 08:47:00,68.8,64.0,30.24,WNW,292,6.8,12.8,85,0.00,,,0.00,Rainwise IP-100,2013-06-23 12:47:00,
2013-06-23 08:52:00,68.8,64.0,30.24,SSW,202,3.5,10.7,85,0.00,,,0.00,Rainwise IP-100,2013-06-23 12:52:00,
2013-06-23 08:57:00,68.8,64.0,30.24,WNW,292,5.4,13.8,85,0.00,,,0.00,Rainwise IP-100,2013-06-23 12:57:00,
2013-06-23 09:02:00,68.9,64.0,30.23,WNW,292,6.5,11.4,85,0.00,,,0.00,Rainwise IP-100,2013-06-23 13:02:00,
2013-06-23 09:07:00,69.1,64.0,30.23,West,270,6.8,11.4,85,0.00,,,0.00,Rainwise IP-100,2013-06-23 13:07:00,
2013-06-23 09:12:00,69.2,64.0,30.23,WNW,292,6.5,16.6,84,0.00,,,0.00,Rainwise IP-100,2013-06-23 13:12:00,
2013-06-23 09:17:00,69.2,64.0,30.23,WNW,292,2.8,15.6,84,0.00,,,0.00,Rainwise IP-100,2013-06-23 13:17:00,
2013-06-23 09:22:00,69.4,64.0,30.22,SSW,202,4.2,11.4,84,0.00,,,0.00,Rainwise IP-100,2013-06-23 13:22:00,
2013-06-23 09:27:00,69.8,64.5,30.22,SSW,202,1.4,12.4,83,0.00,,,0.00,Rainwise IP-100,2013-06-23 13:27:00,
2013-06-23 09:32:00,70.3,65.0,30.22,WNW,292,7.2,9.6,82,0.00,,,0.00,Rainwise IP-100,2013-06-23 13:32:00,
2013-06-23 09:37:00,70.7,64.5,30.22,WSW,247,4.7,12.6,81,0.00,,,0.00,Rainwise IP-100,2013-06-23 13:37:00,
2013-06-23 09:42:00,71.1,65.0,30.22,WNW,292,5.1,10.5,81,0.00,,,0.00,Rainwise IP-100,2013-06-23 13:42:00,
2013-06-23 09:47:00,71.5,65.0,30.23,NNW,337,2.8,9.6,80,0.00,,,0.00,Rainwise IP-100,2013-06-23 13:47:00,
2013-06-23 09:52:00,72.0,65.0,30.23,WNW,292,1.9,10.3,78,0.00,,,0.00,Rainwise IP-100,2013-06-23 13:52:00,
2013-06-23 09:57:00,72.2,65.0,30.23,WNW,292,3.7,11.4,78,0.00,,,0.00,Rainwise IP-100,2013-06-23 13:57:00,
2013-06-23 10:02:00,72.2,65.0,30.22,NNW,337,3.0,7.5,77,0.00,,,0.00,Rainwise IP-100,2013-06-23 14:02:00,
2013-06-23 10:07:00,72.4,65.0,30.23,West,270,3.3,8.6,77,0.00,,,0.00,Rainwise IP-100,2013-06-23 14:07:00,
2013-06-23 10:12:00,72.5,65.0,30.23,NNW,337,2.8,8.6,77,0.00,,,0.00,Rainwise IP-100,2013-06-23 14:12:00,
2013-06-23 10:17:00,72.5,65.0,30.22,South,180,1.9,12.4,76,0.00,,,0.00,Rainwise IP-100,2013-06-23 14:17:00,
2013-06-23 10:22:00,72.3,64.5,30.22,WNW,292,4.2,14.9,76,0.00,,,0.00,Rainwise IP-100,2013-06-23 14:22:00,
2013-06-23 10:27:00,72.3,64.5,30.22,West,270,7.7,9.3,76,0.00,,,0.00,Rainwise IP-100,2013-06-23 14:27:00,
2013-06-23 10:32:00,72.5,64.5,30.21,WNW,292,1.2,13.3,75,0.00,,,0.00,Rainwise IP-100,2013-06-23 14:32:00,
2013-06-23 10:37:00,72.5,64.5,30.21,WNW,292,7.9,12.4,75,0.00,,,0.00,Rainwise IP-100,2013-06-23 14:37:00,
2013-06-23 10:42:00,72.5,64.5,30.21,WSW,247,1.9,13.3,75,0.00,,,0.00,Rainwise IP-100,2013-06-23 14:42:00,
2013-06-23 10:47:00,72.8,64.5,30.22,WSW,247,7.7,12.4,75,0.00,,,0.00,Rainwise IP-100,2013-06-23 14:47:00,
2013-06-23 10:52:00,73.2,65.0,30.21,WSW,247,4.9,12.4,75,0.00,,,0.00,Rainwise IP-100,2013-06-23 14:52:00,
2013-06-23 10:57:00,72.9,65.0,30.21,WNW,292,6.3,12.8,75,0.00,,,0.00,Rainwise IP-100,2013-06-23 14:57:00,
2013-06-23 11:02:00,72.9,65.0,30.21,WNW,292,3.5,13.3,76,0.00,,,0.00,Rainwise IP-100,2013-06-23 15:02:00,
2013-06-23 11:07:00,73.4,65.5,30.20,WSW,247,8.6,15.4,76,0.00,,,0.00,Rainwise IP-100,2013-06-23 15:07:00,
2013-06-23 11:12:00,73.7,66.0,30.21,WNW,292,6.8,11.7,76,0.00,,,0.00,Rainwise IP-100,2013-06-23 15:12:00,
2013-06-23 11:17:00,73.8,65.5,30.21,West,270,4.2,9.6,75,0.00,,,0.00,Rainwise IP-100,2013-06-23 15:17:00,
2013-06-23 11:22:00,74.1,66.3,30.20,SW,225,4.4,11.2,76,0.00,,,0.00,Rainwise IP-100,2013-06-23 15:22:00,
2013-06-23 11:27:00,74.1,66.0,30.20,WNW,292,4.4,11.7,75,0.00,,,0.00,Rainwise IP-100,2013-06-23 15:27:00,
2013-06-23 11:32:00,74.1,66.0,30.20,WNW,292,5.4,15.2,75,0.00,,,0.00,Rainwise IP-100,2013-06-23 15:32:00,
2013-06-23 11:37:00,74.4,66.3,30.20,NW,315,7.2,10.3,75,0.00,,,0.00,Rainwise IP-100,2013-06-23 15:37:00,
2013-06-23 11:42:00,74.6,66.3,30.20,SW,225,3.7,14.9,75,0.00,,,0.00,Rainwise IP-100,2013-06-23 15:42:00,
2013-06-23 11:47:00,74.6,66.3,30.20,WNW,292,4.0,13.3,75,0.00,,,0.00,Rainwise IP-100,2013-06-23 15:47:00,
2013-06-23 11:52:00,74.5,66.3,30.20,WNW,292,4.9,15.9,75,0.00,,,0.00,Rainwise IP-100,2013-06-23 15:52:00,
2013-06-23 11:57:00,74.5,66.3,30.20,WSW,247,1.9,11.7,75,0.00,,,0.00,Rainwise IP-100,2013-06-23 15:57:00,
2013-06-23 12:02:00,74.7,66.3,30.20,WNW,292,5.8,12.1,75,0.00,,,0.00,Rainwise IP-100,2013-06-23 16:02:00,
2013-06-23 12:07:00,74.8,66.3,30.20,WSW,247,7.7,12.4,75,0.00,,,0.00,Rainwise IP-100,2013-06-23 16:07:00,
2013-06-23 12:12:00,74.7,66.0,30.19,WNW,292,9.8,13.1,74,0.00,,,0.00,Rainwise IP-100,2013-06-23 16:12:00,
2013-06-23 12:17:00,74.6,66.0,30.19,WSW,247,6.8,12.8,74,0.00,,,0.00,Rainwise IP-100,2013-06-23 16:17:00,
2013-06-23 12:22:00,74.5,66.0,30.20,WNW,292,4.2,11.2,74,0.00,,,0.00,Rainwise IP-100,2013-06-23 16:22:00,
2013-06-23 12:27:00,74.5,66.0,30.19,WNW,292,7.2,13.5,74,0.00,,,0.00,Rainwise IP-100,2013-06-23 16:27:00,
2013-06-23 12:32:00,74.5,66.0,30.19,WNW,292,8.6,15.6,74,0.00,,,0.00,Rainwise IP-100,2013-06-23 16:32:00,
2013-06-23 12:37:00,74.4,66.0,30.20,West,270,5.8,10.7,74,0.00,,,0.00,Rainwise IP-100,2013-06-23 16:37:00,
2013-06-23 12:42:00,74.5,66.0,30.20,West,270,8.4,14.9,73,0.00,,,0.00,Rainwise IP-100,2013-06-23 16:42:00,
2013-06-23 12:47:00,74.5,66.0,30.19,West,270,3.0,13.8,73,0.00,,,0.00,Rainwise IP-100,2013-06-23 16:47:00,
2013-06-23 12:52:00,74.8,66.0,30.19,NNW,337,3.5,10.3,73,0.00,,,0.00,Rainwise IP-100,2013-06-23 16:52:00,
2013-06-23 12:57:00,75.4,66.3,30.19,WSW,247,9.6,12.6,73,0.00,,,0.00,Rainwise IP-100,2013-06-23 16:57:00,
2013-06-23 13:01:00,75.5,66.0,30.19,WSW,247,6.8,12.6,72,0.00,,,0.00,Rainwise IP-100,2013-06-23 17:01:00,
2013-06-23 13:06:00,75.6,65.5,30.19,WSW,247,4.4,11.2,71,0.00,,,0.00,Rainwise IP-100,2013-06-23 17:06:00,
2013-06-23 13:11:00,75.5,65.5,30.19,WNW,292,7.2,15.2,71,0.00,,,0.00,Rainwise IP-100,2013-06-23 17:11:00,
2013-06-23 13:16:00,75.4,65.5,30.18,WSW,247,5.6,16.3,71,0.00,,,0.00,Rainwise IP-100,2013-06-23 17:16:00,
2013-06-23 13:21:00,75.1,65.0,30.18,NNW,337,4.2,15.4,71,0.00,,,0.00,Rainwise IP-100,2013-06-23 17:21:00,
2013-06-23 13:26:00,75.2,65.0,30.18,West,270,2.3,14.7,71,0.00,,,0.00,Rainwise IP-100,2013-06-23 17:26:00,
2013-06-23 13:31:00,75.5,66.0,30.19,WSW,247,4.9,11.9,72,0.00,,,0.00,Rainwise IP-100,2013-06-23 17:31:00,
2013-06-23 13:36:00,75.8,66.0,30.19,WSW,247,7.5,18.0,71,0.00,,,0.00,Rainwise IP-100,2013-06-23 17:36:00,
2013-06-23 13:41:00,75.6,65.5,30.18,WNW,292,8.6,15.2,71,0.00,,,0.00,Rainwise IP-100,2013-06-23 17:41:00,
2013-06-23 13:46:00,75.0,65.0,30.18,WNW,292,4.9,14.2,71,0.00,,,0.00,Rainwise IP-100,2013-06-23 17:46:00,
2013-06-23 13:51:00,75.2,66.0,30.18,WNW,292,4.7,14.0,73,0.00,,,0.00,Rainwise IP-100,2013-06-23 17:51:00,
2013-06-23 13:56:00,75.4,66.3,30.18,WNW,292,3.0,11.4,73,0.00,,,0.00,Rainwise IP-100,2013-06-23 17:56:00,
2013-06-23 14:01:00,75.2,66.0,30.18,WSW,247,4.4,14.2,73,0.00,,,0.00,Rainwise IP-100,2013-06-23 18:01:00,
2013-06-23 14:06:00,75.0,66.0,30.18,West,270,7.9,17.5,73,0.00,,,0.00,Rainwise IP-100,2013-06-23 18:06:00,
2013-06-23 14:11:00,75.1,66.3,30.18,WNW,292,5.8,18.7,74,0.00,,,0.00,Rainwise IP-100,2013-06-23 18:11:00,
2013-06-23 14:16:00,75.1,66.3,30.18,WSW,247,4.2,14.9,74,0.00,,,0.00,Rainwise IP-100,2013-06-23 18:16:00,
2013-06-23 14:21:00,75.0,66.3,30.18,WNW,292,4.9,15.4,74,0.00,,,0.00,Rainwise IP-100,2013-06-23 18:21:00,
2013-06-23 14:26:00,75.1,66.3,30.17,NNW,337,4.0,17.7,74,0.00,,,0.00,Rainwise IP-100,2013-06-23 18:26:00,
2013-06-23 14:31:00,74.8,66.3,30.17,WNW,292,13.8,18.0,75,0.00,,,0.00,Rainwise IP-100,2013-06-23 18:31:00,
2013-06-23 14:36:00,74.5,66.7,30.17,West,270,10.5,17.7,76,0.00,,,0.00,Rainwise IP-100,2013-06-23 18:36:00,
2013-06-23 14:41:00,74.3,66.3,30.17,WNW,292,8.2,16.3,76,0.00,,,0.00,Rainwise IP-100,2013-06-23 18:41:00,
2013-06-23 14:46:00,74.6,67.0,30.17,WNW,292,8.9,17.0,77,0.00,,,0.00,Rainwise IP-100,2013-06-23 18:46:00,
2013-06-23 14:51:00,74.9,67.5,30.16,NNW,337,3.5,15.2,77,0.00,,,0.00,Rainwise IP-100,2013-06-23 18:51:00,
2013-06-23 14:56:00,75.2,67.5,30.16,SW,225,5.1,18.4,77,0.00,,,0.00,Rainwise IP-100,2013-06-23 18:56:00,
2013-06-23 15:01:00,75.4,68.0,30.16,SSW,202,4.7,15.6,77,0.00,,,0.00,Rainwise IP-100,2013-06-23 19:01:00,
2013-06-23 15:06:00,75.6,68.0,30.16,SSE,157,3.3,17.3,77,0.00,,,0.00,Rainwise IP-100,2013-06-23 19:06:00,
2013-06-23 15:11:00,75.9,68.0,30.16,WNW,292,5.4,15.4,77,0.00,,,0.00,Rainwise IP-100,2013-06-23 19:11:00,
2013-06-23 15:16:00,76.2,68.0,30.16,WNW,292,10.5,17.0,76,0.00,,,0.00,Rainwise IP-100,2013-06-23 19:16:00,
2013-06-23 15:21:00,76.2,68.5,30.16,WSW,247,17.3,17.3,77,0.00,,,0.00,Rainwise IP-100,2013-06-23 19:21:00,
2013-06-23 15:26:00,75.7,68.0,30.16,West,270,8.6,21.7,77,0.00,,,0.00,Rainwise IP-100,2013-06-23 19:26:00,
2013-06-23 15:31:00,75.1,68.0,30.16,WSW,247,6.3,20.5,78,0.00,,,0.00,Rainwise IP-100,2013-06-23 19:31:00,
2013-06-23 15:36:00,75.0,68.0,30.16,WNW,292,4.4,17.5,78,0.00,,,0.00,Rainwise IP-100,2013-06-23 19:36:00,
2013-06-23 15:41:00,75.2,68.5,30.15,WSW,247,4.9,16.1,79,0.00,,,0.00,Rainwise IP-100,2013-06-23 19:41:00,
2013-06-23 15:46:00,75.4,68.5,30.16,WNW,292,11.4,15.9,79,0.00,,,0.00,Rainwise IP-100,2013-06-23 19:46:00,
2013-06-23 15:51:00,75.3,68.5,30.15,WNW,292,14.0,18.7,79,0.00,,,0.00,Rainwise IP-100,2013-06-23 19:51:00,
2013-06-23 15:56:00,75.3,68.5,30.15,WNW,292,9.3,19.8,79,0.00,,,0.00,Rainwise IP-100,2013-06-23 19:56:00,
2013-06-23 16:01:00,75.2,68.5,30.15,SW,225,7.7,14.5,79,0.00,,,0.00,Rainwise IP-100,2013-06-23 20:01:00,
2013-06-23 16:06:00,75.1,68.5,30.14,West,270,5.6,13.5,80,0.00,,,0.00,Rainwise IP-100,2013-06-23 20:06:00,
2013-06-23 16:11:00,75.3,69.0,30.15,WNW,292,1.6,16.6,80,0.00,,,0.00,Rainwise IP-100,2013-06-23 20:11:00,
2013-06-23 16:16:00,75.5,69.0,30.15,NNW,337,3.7,18.2,80,0.00,,,0.00,Rainwise IP-100,2013-06-23 20:16:00,
2013-06-23 16:21:00,75.8,69.0,30.15,WNW,292,15.9,15.9,79,0.00,,,0.00,Rainwise IP-100,2013-06-23 20:21:00,
2013-06-23 16:26:00,76.0,69.0,30.14,WNW,292,8.9,17.0,79,0.00,,,0.00,Rainwise IP-100,2013-06-23 20:26:00,
2013-06-23 16:31:00,76.0,69.0,30.14,WNW,292,1.6,17.7,79,0.00,,,0.00,Rainwise IP-100,2013-06-23 20:31:00,
2013-06-23 16:36:00,75.9,69.0,30.14,WNW,292,5.4,10.0,79,0.00,,,0.00,Rainwise IP-100,2013-06-23 20:36:00,
2013-06-23 16:41:00,76.1,69.0,30.13,WSW,247,7.2,15.9,79,0.00,,,0.00,Rainwise IP-100,2013-06-23 20:41:00,
2013-06-23 16:46:00,75.9,69.0,30.14,SSW,202,1.6,14.0,79,0.00,,,0.00,Rainwise IP-100,2013-06-23 20:46:00,
2013-06-23 16:51:00,75.9,69.3,30.13,North,360,2.8,13.1,80,0.00,,,0.00,Rainwise IP-100,2013-06-23 20:51:00,
2013-06-23 16:56:00,75.9,69.3,30.13,SSW,202,3.3,11.9,80,0.00,,,0.00,Rainwise IP-100,2013-06-23 20:56:00,
2013-06-23 17:01:00,75.6,69.0,30.14,WNW,292,7.5,18.0,80,0.00,,,0.00,Rainwise IP-100,2013-06-23 21:01:00,
2013-06-23 17:06:00,75.2,69.0,30.14,NW,315,5.8,14.0,81,0.00,,,0.00,Rainwise IP-100,2013-06-23 21:06:00,
2013-06-23 17:11:00,74.9,69.3,30.14,WNW,292,5.8,18.4,82,0.00,,,0.00,Rainwise IP-100,2013-06-23 21:11:00,
2013-06-23 17:16:00,74.8,69.0,30.14,NNW,337,6.3,20.8,82,0.00,,,0.00,Rainwise IP-100,2013-06-23 21:16:00,
2013-06-23 17:21:00,74.6,69.3,30.14,NNW,337,4.2,14.9,83,0.00,,,0.00,Rainwise IP-100,2013-06-23 21:21:00,
2013-06-23 17:26:00,74.1,69.0,30.13,WNW,292,6.1,16.1,83,0.00,,,0.00,Rainwise IP-100,2013-06-23 21:26:00,
2013-06-23 17:31:00,73.9,69.0,30.14,NE,45,3.3,18.7,84,0.00,,,0.00,Rainwise IP-100,2013-06-23 21:31:00,
2013-06-23 17:36:00,73.5,68.5,30.13,SSW,202,5.6,15.6,83,0.00,,,0.00,Rainwise IP-100,2013-06-23 21:36:00,
2013-06-23 17:41:00,73.2,68.0,30.14,West,270,3.0,14.2,83,0.00,,,0.00,Rainwise IP-100,2013-06-23 21:41:00,
2013-06-23 17:46:00,73.3,68.5,30.13,WNW,292,8.2,14.9,84,0.00,,,0.00,Rainwise IP-100,2013-06-23 21:46:00,
2013-06-23 17:51:00,73.2,68.5,30.14,WNW,292,7.9,13.5,84,0.00,,,0.00,Rainwise IP-100,2013-06-23 21:51:00,
2013-06-23 17:56:00,72.9,67.5,30.14,SSE,157,1.9,15.6,83,0.00,,,0.00,Rainwise IP-100,2013-06-23 21:56:00,
2013-06-23 18:01:00,72.4,67.0,30.13,WNW,292,5.1,21.5,84,0.00,,,0.00,Rainwise IP-100,2013-06-23 22:01:00,
2013-06-23 18:06:00,71.8,66.7,30.13,West,270,7.2,14.0,85,0.00,,,0.00,Rainwise IP-100,2013-06-23 22:06:00,
2013-06-23 18:11:00,71.5,67.0,30.13,NW,315,3.0,16.1,86,0.00,,,0.00,Rainwise IP-100,2013-06-23 22:11:00,
2013-06-23 18:16:00,71.2,67.0,30.13,WSW,247,3.5,14.5,87,0.00,,,0.00,Rainwise IP-100,2013-06-23 22:16:00,
2013-06-23 18:21:00,70.8,67.0,30.13,West,270,8.4,14.5,88,0.00,,,0.00,Rainwise IP-100,2013-06-23 22:21:00,
2013-06-23 18:26:00,70.5,67.0,30.13,WNW,292,18.4,18.4,89,0.00,,,0.00,Rainwise IP-100,2013-06-23 22:26:00,
2013-06-23 18:31:00,70.1,67.0,30.13,WNW,292,11.4,18.4,90,0.00,,,0.00,Rainwise IP-100,2013-06-23 22:31:00,
2013-06-23 18:36:00,69.9,67.0,30.13,ENE,67,4.0,19.8,90,0.00,,,0.00,Rainwise IP-100,2013-06-23 22:36:00,
2013-06-23 18:41:00,69.7,66.7,30.13,West,270,5.8,18.9,91,0.00,,,0.00,Rainwise IP-100,2013-06-23 22:41:00,
2013-06-23 18:46:00,69.4,66.7,30.13,West,270,7.9,19.1,92,0.00,,,0.00,Rainwise IP-100,2013-06-23 22:46:00,
2013-06-23 18:51:00,69.1,66.7,30.14,WSW,247,8.6,12.6,93,0.00,,,0.00,Rainwise IP-100,2013-06-23 22:51:00,
2013-06-23 18:56:00,68.9,67.0,30.13,WNW,292,13.8,13.8,94,0.00,,,0.00,Rainwise IP-100,2013-06-23 22:56:00,
2013-06-23 19:01:00,68.8,67.0,30.13,WNW,292,4.0,15.9,94,0.00,,,0.00,Rainwise IP-100,2013-06-23 23:01:00,
2013-06-23 19:06:00,68.8,67.0,30.14,WNW,292,10.3,14.0,95,0.00,,,0.00,Rainwise IP-100,2013-06-23 23:06:00,
2013-06-23 19:11:00,68.8,67.0,30.14,WNW,292,6.3,11.7,95,0.00,,,0.00,Rainwise IP-100,2013-06-23 23:11:00,
2013-06-23 19:16:00,69.0,67.5,30.14,WNW,292,10.3,14.5,96,0.00,,,0.00,Rainwise IP-100,2013-06-23 23:16:00,
2013-06-23 19:21:00,69.1,67.5,30.14,WNW,292,4.7,11.9,96,0.00,,,0.00,Rainwise IP-100,2013-06-23 23:21:00,
2013-06-23 19:26:00,69.2,68.0,30.14,NNW,337,1.6,11.9,96,0.00,,,0.00,Rainwise IP-100,2013-06-23 23:26:00,
2013-06-23 19:31:00,69.2,68.0,30.14,South,180,1.2,12.6,96,0.00,,,0.00,Rainwise IP-100,2013-06-23 23:31:00,
2013-06-23 19:36:00,69.3,68.0,30.13,WNW,292,6.1,12.8,96,0.00,,,0.00,Rainwise IP-100,2013-06-23 23:36:00,
2013-06-23 19:41:00,69.3,68.0,30.14,WNW,292,9.8,16.1,96,0.00,,,0.00,Rainwise IP-100,2013-06-23 23:41:00,
2013-06-23 19:46:00,69.3,68.0,30.14,WNW,292,4.0,20.3,96,0.00,,,0.00,Rainwise IP-100,2013-06-23 23:46:00,
2013-06-23 19:51:00,69.4,67.5,30.14,WSW,247,4.9,17.5,95,0.00,,,0.00,Rainwise IP-100,2013-06-23 23:51:00,
2013-06-23 19:56:00,69.3,67.5,30.15,West,270,3.0,11.4,95,0.00,,,0.00,Rainwise IP-100,2013-06-23 23:56:00,
2013-06-23 20:01:00,69.1,67.0,30.14,WNW,292,5.4,11.4,95,0.00,,,0.00,Rainwise IP-100,2013-06-24 00:01:00,
2013-06-23 20:06:00,68.9,67.5,30.14,WSW,247,6.5,13.8,96,0.00,,,0.00,Rainwise IP-100,2013-06-24 00:06:00,
2013-06-23 20:11:00,68.7,67.0,30.14,WSW,247,6.5,11.0,96,0.00,,,0.00,Rainwise IP-100,2013-06-24 00:11:00,
2013-06-23 20:16:00,68.5,67.0,30.14,WNW,292,2.8,13.5,96,0.00,,,0.00,Rainwise IP-100,2013-06-24 00:16:00,
2013-06-23 20:21:00,68.4,67.0,30.14,WNW,292,4.9,11.7,96,0.00,,,0.00,Rainwise IP-100,2013-06-24 00:21:00,
2013-06-23 20:26:00,68.4,67.0,30.14,WNW,292,6.5,12.8,96,0.00,,,0.00,Rainwise IP-100,2013-06-24 00:26:00,
2013-06-23 20:31:00,68.4,67.0,30.14,SW,225,5.1,12.4,96,0.00,,,0.00,Rainwise IP-100,2013-06-24 00:31:00,
2013-06-23 20:36:00,68.4,67.5,30.14,WSW,247,4.4,11.9,97,0.00,,,0.00,Rainwise IP-100,2013-06-24 00:36:00,
2013-06-23 20:41:00,68.5,67.5,30.14,WNW,292,4.2,11.4,97,0.00,,,0.00,Rainwise IP-100,2013-06-24 00:41:00,
2013-06-23 20:46:00,68.5,67.5,30.14,WNW,292,5.8,10.7,97,0.00,,,0.00,Rainwise IP-100,2013-06-24 00:46:00,
2013-06-23 20:51:00,68.4,67.5,30.14,West,270,6.1,10.5,97,0.00,,,0.00,Rainwise IP-100,2013-06-24 00:51:00,
2013-06-23 20:56:00,68.4,67.5,30.14,WNW,292,4.7,16.3,97,0.00,,,0.00,Rainwise IP-100,2013-06-24 00:56:00,
2013-06-23 21:01:00,68.4,67.5,30.14,WNW,292,2.8,13.3,97,0.00,,,0.00,Rainwise IP-100,2013-06-24 01:01:00,
2013-06-23 21:06:00,68.3,67.5,30.14,WNW,292,4.7,15.9,97,0.00,,,0.00,Rainwise IP-100,2013-06-24 01:06:00,
2013-06-23 21:11:00,68.3,67.5,30.14,WNW,292,3.3,11.0,97,0.00,,,0.00,Rainwise IP-100,2013-06-24 01:11:00,
2013-06-23 21:16:00,68.3,68.0,30.14,West,270,6.1,10.5,98,0.00,,,0.00,Rainwise IP-100,2013-06-24 01:16:00,
2013-06-23 21:21:00,68.2,67.5,30.14,WNW,292,5.6,11.2,98,0.00,,,0.00,Rainwise IP-100,2013-06-24 01:21:00,
2013-06-23 21:26:00,68.1,67.5,30.15,WSW,247,4.4,13.5,98,0.00,,,0.00,Rainwise IP-100,2013-06-24 01:26:00,
2013-06-23 21:31:00,68.0,67.5,30.15,North,360,2.6,11.2,98,0.00,,,0.00,Rainwise IP-100,2013-06-24 01:31:00,
2013-06-23 21:36:00,67.9,67.5,30.15,West,270,4.2,14.7,98,0.00,,,0.00,Rainwise IP-100,2013-06-24 01:36:00,
2013-06-23 21:41:00,67.9,67.5,30.15,WSW,247,5.4,13.5,98,0.00,,,0.00,Rainwise IP-100,2013-06-24 01:41:00,
2013-06-23 21:46:00,68.0,67.5,30.16,WNW,292,9.1,11.0,99,0.00,,,0.00,Rainwise IP-100,2013-06-24 01:46:00,
2013-06-23 21:51:00,68.1,67.5,30.16,WNW,292,7.5,14.7,99,0.00,,,0.00,Rainwise IP-100,2013-06-24 01:51:00,
2013-06-23 21:56:00,68.1,67.5,30.16,WNW,292,10.7,12.6,99,0.00,,,0.00,Rainwise IP-100,2013-06-24 01:56:00,
2013-06-23 22:01:00,68.2,67.5,30.16,WNW,292,5.4,13.1,99,0.00,,,0.00,Rainwise IP-100,2013-06-24 02:01:00,
2013-06-23 22:06:00,68.2,67.5,30.15,WNW,292,5.8,9.8,99,0.00,,,0.00,Rainwise IP-100,2013-06-24 02:06:00,
2013-06-23 22:11:00,68.2,67.5,30.15,WSW,247,6.8,11.7,99,0.00,,,0.00,Rainwise IP-100,2013-06-24 02:11:00,
2013-06-23 22:16:00,68.2,67.5,30.15,North,360,3.7,14.0,99,0.00,,,0.00,Rainwise IP-100,2013-06-24 02:16:00,
2013-06-23 22:21:00,68.1,67.5,30.16,WNW,292,6.1,13.5,99,0.00,,,0.00,Rainwise IP-100,2013-06-24 02:21:00,
2013-06-23 22:26:00,68.1,68.0,30.15,WNW,292,7.9,15.9,100,0.00,,,0.00,Rainwise IP-100,2013-06-24 02:26:00,
2013-06-23 22:31:00,68.1,68.0,30.15,WSW,247,2.8,13.3,100,0.00,,,0.00,Rainwise IP-100,2013-06-24 02:31:00,
2013-06-23 22:36:00,68.0,68.0,30.15,WSW,247,4.9,13.5,100,0.00,,,0.00,Rainwise IP-100,2013-06-24 02:36:00,
2013-06-23 22:41:00,67.9,68.0,30.15,North,360,6.3,12.6,100,0.00,,,0.00,Rainwise IP-100,2013-06-24 02:41:00,
2013-06-23 22:46:00,67.8,68.0,30.15,SW,225,4.9,12.4,100,0.00,,,0.00,Rainwise IP-100,2013-06-24 02:46:00,
2013-06-23 22:51:00,67.7,67.5,30.15,WSW,247,4.4,17.5,100,0.00,,,0.00,Rainwise IP-100,2013-06-24 02:51:00,
2013-06-23 22:56:00,67.7,67.5,30.14,WSW,247,6.5,17.5,100,0.00,,,0.00,Rainwise IP-100,2013-06-24 02:56:00,
2013-06-23 23:01:00,67.6,67.5,30.14,WNW,292,10.3,11.0,100,0.00,,,0.00,Rainwise IP-100,2013-06-24 03:01:00,
2013-06-23 23:06:00,67.5,67.5,30.15,WNW,292,5.1,13.5,100,0.00,,,0.00,Rainwise IP-100,2013-06-24 03:06:00,
2013-06-23 23:11:00,67.5,67.5,30.14,WNW,292,11.0,12.8,100,0.00,,,0.00,Rainwise IP-100,2013-06-24 03:11:00,
2013-06-23 23:16:00,67.6,67.5,30.14,WSW,247,5.1,14.5,100,0.00,,,0.00,Rainwise IP-100,2013-06-24 03:16:00,
2013-06-23 23:21:00,67.5,67.5,30.14,SW,225,6.3,14.0,100,0.00,,,0.00,Rainwise IP-100,2013-06-24 03:21:00,
2013-06-23 23:26:00,67.4,67.5,30.14,WSW,247,7.2,17.0,100,0.00,,,0.00,Rainwise IP-100,2013-06-24 03:26:00,
2013-06-23 23:31:00,67.4,67.5,30.14,NW,315,6.8,11.9,100,0.00,,,0.00,Rainwise IP-100,2013-06-24 03:31:00,
2013-06-23 23:36:00,67.4,67.5,30.14,SSW,202,3.7,14.9,100,0.00,,,0.00,Rainwise IP-100,2013-06-24 03:36:00,
2013-06-23 23:41:00,67.3,67.5,30.13,NW,315,4.0,10.3,100,0.00,,,0.00,Rainwise IP-100,2013-06-24 03:41:00,
2013-06-23 23:46:00,67.3,67.5,30.12,NW,315,9.1,15.2,100,0.00,,,0.00,Rainwise IP-100,2013-06-24 03:46:00,
2013-06-23 23:51:00,67.2,67.0,30.12,NW,315,4.7,13.3,100,0.00,,,0.00,Rainwise IP-100,2013-06-24 03:51:00,
2013-06-23 23:56:00,67.2,67.0,30.13,NW,315,8.4,15.6,100,0.00,,,0.00,Rainwise IP-100,2013-06-24 03:56:00,